Regional Weather Roundup
Issued by NWS Wilmington, NC

Home | Current Version | Previous Version | Text Only | Print | Product List | Glossary On
Versions: 1 2 3 4 5 6 7 8 9 10 11 12 13 14 15 16 17 18 19 20 21 22 23 24 25 26 27 28 29 30 31 32 33 34 35 36 37 38 39 40 41 42 43 44 45 46 47 48 49 50
000
ASUS42 KILM 200813
RWRILM
RWRILM
REGIONAL HOURLY WEATHER ROUNDUP
NATIONAL WEATHER SERVICE WILMINGTON NC
300 AM EST TUE FEB 20 2018

NOTE: "FAIR" INDICATES FEW OR NO CLOUDS BELOW 12,000 FEET WITH NO
SIGNIFICANT WEATHER AND/OR OBSTRUCTIONS TO VISIBILITY.

...............WFO WILMINGTON COUNTY WARNING AREA...............

......COASTAL NC AND SC COUNTIES......

CITY           SKY/WX    TMP DP  RH WIND       PRES   REMARKS
WILMINGTON     FOG       65  65 100 SE3       30.41F VSB 1/2
N MYRTLE BEACH FOG       59  59 100 CALM      30.40F VSB 1/4
MYRTLE BEACH   FOG       59  57  94 CALM      30.41F VSB 1/2

......INLAND NC AND SC COUNTIES.......

CITY           SKY/WX    TMP DP  RH WIND       PRES   REMARKS
LUMBERTON      FOG       56  56 100 CALM      30.41F VSB 1/4
ELIZABETHTOWN  NOT AVBL
WHITEVILLE     FOG       62  62  97 CALM      30.40F VSB 1/4
FLORENCE       FOG       59  58  96 CALM      30.40F VSB 1/4
DARLINGTON     LGT RAIN  56  56 100 CALM      30.41F VSB 1/4
KINGSTREE      LGT RAIN  61  61 100 CALM      30.40S VSB 3/4
HARTSVILLE     FOG       54  54 100 CALM      30.40F VSB 1/4
BENNETTSVILLE  FOG       57  57 100 CALM      30.41F VSB 1/4
CONWAY         RAIN      55  55 100 CALM      30.40F VSB 1/2
GEORGETOWN     FOG       55  55 100 CALM      30.41F VSB 1/2
MARION         FOG       59  59 100 CALM      30.41S VSB 1/4

....................REST OF NORTH CAROLINA......................

.........EASTERN NC.........

CITY           SKY/WX    TMP DP  RH WIND       PRES   REMARKS
CAPE HATTERAS  CLOUDY    63  62  97 S6        30.45S
JACKSONVILLE   FOG       64  63  96 CALM      30.42F VSB 1/4
MOREHEAD CITY  CLOUDY    65  63  93 S7        30.43F
KENANSVILLE    FOG       64  64 100 CALM      30.42F VSB 1/2
NEW BERN       MOCLDY    62  62 100 S6        30.43F FOG
ELIZABETH CITY MOCLDY    62  62 100 S8        30.42F

.........CENTRAL NC.........

CITY           SKY/WX    TMP DP  RH WIND       PRES   REMARKS
RALEIGH DURHAM FOG       51  51 100 CALM      30.42F VSB 1/4
ROCKY MOUNT    FOG       52  51  97 CALM      30.42F VSB 1/4
ROANOKE RAPIDS NOT AVBL
FAYETTEVILLE   FOG       52  52 100 CALM      30.41F VSB 1/4
HOFFMAN        FOG       52  52  99 CALM      30.41F VSB 3/8

.........WESTERN NC.........

CITY           SKY/WX    TMP DP  RH WIND       PRES   REMARKS
CHARLOTTE      FOG       54  54 100 CALM      30.40S VSB 1/2
GREENSBORO     FOG       51  51 100 S3        30.39F VSB 1/4
HICKORY        NOT AVBL
BOONE          NOT AVBL
ASHEVILLE      NOT AVBL

.....................REST OF SOUTH CAROLINA.....................

.........EASTERN SC.........

CITY           SKY/WX    TMP DP  RH WIND       PRES   REMARKS
CHARLESTON     FOG       61  61 100 CALM      30.38F VSB 1/4
BEAUFORT MCAS  FOG       60  60 100 CALM      30.37S VSB 1/4
HILTON HEAD    FAIR      64  64 100 CALM      30.37F

.........CENTRAL SC.........

CITY           SKY/WX    TMP DP  RH WIND       PRES   REMARKS
COLUMBIA       FOG       62  62 100 E3        30.38F VSB 1/4
ORANGEBURG     FOG       61  60  97 CALM      30.39S VSB 1/4
SUMTER SHAW    FOG       61  60  99 NE3       30.37F VSB 3/8

.........WESTERN SC.........

CITY           SKY/WX    TMP DP  RH WIND       PRES   REMARKS
GREENVILLE     NOT AVBL
ROCK HILL      FOG       54  54 100 NW3       30.40S VSB 1/4
ANDERSON       CLOUDY    56  56 100 VRB3      30.38S FOG
CLEMSON        NOT AVBL
GREENWOOD      CLOUDY    56  56 100 CALM      30.40F FOG


...................COASTAL AND OFFSHORE REPORTS..................

................LOCAL PIERS AND NC RESERVE................


STATION/POSITION TIME  SKY/WX   TEMP    WIND        PRES    VSBY
                                AIR SEA DIR/SP/G
                 (UTC)          (F)     (DEG/KT/KT) (MB)    (MI)
JOHNY MRCER PIER 0748               56  190/  3/  4 1030.1F
NC RESRV MASNBRO NOT AVBL
OCEAN CREST PIER NOT AVBL
SPRINGMAID  PIER 0748                               1032.7F


................COASTAL AND OFFSHORE BUOYS................


STATION/POSITION TIME  SKY/WX   TEMP    WIND        PRES    VSBY
                                AIR SEA DIR/SP/G
                 (UTC)          (F)     (DEG/KT/KT) (MB)    (MI)
DIMNDSHOAL 41025 0750            72 72  170/ 14/ 17 1031.3F
WVE H/P(F/S)=  4/ 8 SWL H/P/D(F/S/D)=  2/ 70/ 8

CAPE LOOKOUT     0800                   170/  7/  7 1030.7F
ONSLOW BAY 41036 NOT AVBL
ONSLOW BAY 41064 0708            70 68  160/  8/ 12 1030.7S
ONSLOW BAY 41159 0800               68                N/A
WVE H/P(F/S)=  4/ 6

MASNBO INL 41110 0759               54                N/A
WVE H/P(F/S)=  3/ 6

WILM HARBR 41108 0800               57                N/A
WVE H/P(F/S)=  3/ 6

27SE WRITB 41037 NOT AVBL
FRYING PAN 41013 0800            70 68  150/  4/  6 1029.9
SUNST NRSH 41024 0708            56 54  110/  2/  2 1029.9R
CAPRS NRSH 41029 0708            56 58   50/  2/  4 1029.0R
EDISTO     41004 0800            70 68  150/  6/  6 1028.7


..........OFFSHORE BUOYS BEYOND 100 NM OFFSHORE...........
.....IN A TRIANGLE---HAT TO BERMUDA TO BAHAMAS TO HAT.....


STATION/POSITION TIME  SKY/WX   TEMP    WIND        PRES    VSBY
                                AIR SEA DIR/SP/G
                 (UTC)          (F)     (DEG/KT/KT) (MB)    (MI)
150E HAT   41001 NOT AVBL
W BERMUDA  41048 0800            68 69  100/ 14/ 16 1032.7
ATLANTIC S 41049 0750            71 75   50/ 19/ 23 1028.6F
WVE H/P(F/S)=  8/11 SWL H/P/D(F/S/D)=  3/340/11

E BAHAMAS  41046 0800            76 78   70/ 16/ 19 1025.9
NE BAHAMAS 41047 0750                    90/ 16/ 19 1028.8F
WVE H/P(F/S)=  6/ 8 SWL H/P/D(F/S/D)=  3/ 50/ 8

120E CANVRL41010 NOT AVBL

END



USA.gov is the U.S. government's official web portal to all federal, state and local government web resources and services.